{"data":{"norad_id":41886,"epoch":"2026-05-25T00:56:46.340736Z","epoch_age_seconds":64838,"freshness":"FRESH","line1":"1 41886U 16078C   26145.03942524  .00030662  00000+0  33050-3 0  9996","line2":"2 41886  34.9421  17.7391 0008993 331.1630  28.8599 15.62583404525546","mean_motion":15.62583404,"eccentricity":0.0008993,"inclination_deg":34.9421,"raan_deg":17.7391,"arg_perigee_deg":331.163,"mean_anomaly_deg":28.8599,"bstar":0.0003305,"rev_number":52554,"period_min":92.155080894485,"perigee_km":374.12003940609,"apogee_km":386.27558039518,"semimajor_km":6758.3348099006,"source":"CELESTRAK","updated_at":"2026-05-25T13:38:11.919190Z"}}